[[{"header":{"parameterUnit":"m.s-1","parameterCategory":1,"la1":30.2991,"la2":30.254,"lo1":-89.0895,"lo2":-89.0444,"dy":0.0017,"dx":0.0017,"nx":28,"ny":28,"refTime":"2025-05-20T03:00:00:Z","depth":0,"parameterNumber":2,"parameterNumberName":"U-component_of_WINDS"},"data":[0,0,0,0,0,0,0,0,0,0,0,0,0,0,0,0,0,0,0,0,0,0,0,0,0,0,0,0,0,0,0,0,0,0,0,0,0,0,0,0,0,0,0,0,0,0,0,0,0,0,0,0,0,0,0,0,0,0,0.1727,0.1728,0,0.181,0.1811,0.1812,0.181,0.1809,0.1808,0.1807,0.1892,0.1895,0.1898,0,0,0,0,0,0,0,0,0,0,0,0,0,0.1567,0.157,0.1727,0.1728,0.1729,0.181,0.1811,0.1812,0.181,0.1809,0.1808,0.1806,0.1891,0.1895,0.1899,0,0,0,0,0,0,0,0,0,0,0,0,0,0.1642,0.1571,0.1727,0.1738,0.174,0.181,0.1811,0.1812,0.1811,0.1809,0.1807,0.1806,0.189,0.1894,0.1899,0.1964,0,0,0.1914,0.1917,0,0,0,0,0,0,0,0,0.1637,0.1647,0.1735,0.1737,0.1739,0.1798,0.1786,0.1863,0.1811,0.1784,0.1807,0.1805,0.1862,0.1869,0.1888,0.1968,0.1971,0.1915,0.1918,0.192,0.1921,0,0,0,0,0,0,0,0.1632,0.1644,0.176,0.1736,0.1739,0.1739,0.1747,0.18,0.1831,0.1786,0.1786,0.1796,0.1863,0.1884,0.189,0.1973,0.1915,0.1919,0.1922,0.1924,0.2109,0.2111,0,0,0,0,0,0,0.1625,0.164,0.1757,0.1762,0.1683,0.1743,0.1753,0.1781,0.1831,0.1837,0.1797,0.1795,0.1876,0.1885,0.1893,0.1972,0.192,0.1925,0.1928,0.2107,0.211,0.2112,0,0,0,0,0,0,0.1621,0.1635,0.1754,0.1701,0.1716,0.1747,0.1779,0.1783,0.1804,0.1839,0.1845,0.1813,0.1875,0.1886,0.1946,0.1975,0.1927,0.1931,0.2105,0.2108,0.2111,0.213,0,0,0,0,0,0,0.1617,0.1634,0.1659,0.1702,0.1719,0.1805,0.1781,0.1786,0.1813,0.1811,0.1855,0.1861,0.1875,0.1939,0.1951,0.1981,0.1935,0.2103,0.2106,0.211,0.2127,0.2133,0.2138,0,0,0,0,0,0.1611,0.1661,0.166,0.1674,0.175,0.1807,0.1817,0.1831,0.1815,0.184,0.1863,0.186,0.197,0.1945,0.1959,0.1991,0.2101,0.2105,0.2109,0.2124,0.2132,0.2138,0,0,0,0,0,0,0.162,0.1666,0.1666,0.1731,0.1765,0.1806,0.1838,0.1839,0.1878,0.1875,0.1892,0.1902,0.1961,0.1982,0.1953,0.2056,0.2033,0.2041,0.204,0.2047,0.2053,0.2046,0.1939,0,0,0,0,0,0.163,0.1671,0.171,0.1764,0.1781,0.1807,0.1832,0.184,0.1876,0.189,0.1917,0.1952,0.1995,0.2022,0.2063,0.213,0.214,0.2159,0.2165,0.2169,0.2175,0.2212,0.2221,0.2126,0.2126,0.2126,0,0,0.165,0.168,0.1706,0.1766,0.1793,0.1836,0.1819,0.1865,0.1897,0.1897,0.1955,0.1977,0.2017,0.208,0.2109,0.2099,0.2203,0.2175,0.2178,0.2182,0.2217,0.2226,0.2234,0.2129,0.2128,0.2128,0,0,0.1708,0.1736,0.1784,0.1811,0.1853,0.187,0.1882,0.1923,0.1937,0.1996,0.1997,0.2036,0.2109,0.2137,0.2161,0.2231,0.223,0.2244,0.2274,0.231,0.2318,0.2324,0.2349,0.2358,0.225,0.225,0.225,0,0.1728,0.1793,0.1808,0.1855,0.1881,0.1884,0.1932,0.1959,0.2011,0.203,0.2018,0.211,0.2137,0.2207,0.2224,0.2244,0.2257,0.2239,0.2315,0.2322,0.2329,0.2352,0.2362,0.2252,0.2252,0.2251,0.2251,0,0.1815,0.186,0.1894,0.1945,0.1975,0.2022,0.2045,0.2074,0.208,0.2099,0.2158,0.2191,0.2239,0.2257,0.2263,0.2328,0.232,0.2312,0.2289,0.2339,0.2361,0.2371,0.2254,0.2253,0.2253,0.2253,0,0,0.188,0.194,0.1952,0.1975,0.2022,0.2057,0.2105,0.2151,0.2176,0.2213,0.2253,0.2315,0.2307,0.2335,0.2345,0.2376,0.2429,0.2364,0.2365,0.2374,0.2503,0.2508,0.2519,0.2429,0.2431,0.2432,0.2499,0,0.1943,0.2028,0.2043,0.2117,0.2159,0.2162,0.2204,0.2237,0.2256,0.2294,0.2315,0.2358,0.2345,0.2362,0.2393,0.2416,0.2455,0.2412,0.2466,0.2468,0.2455,0.2531,0.2537,0.2598,0.2508,0.251,0.2511,0,0.2028,0.2067,0.2145,0.2186,0.2204,0.2241,0.2285,0.2322,0.236,0.2371,0.2402,0.2408,0.2458,0.2434,0.2503,0.2473,0.2497,0.2512,0.2514,0.2519,0.2492,0.2537,0.2618,0.2627,0.2525,0.2524,0.2523,0,0.2067,0.2139,0.2195,0.2215,0.2265,0.229,0.2312,0.2349,0.2376,0.2415,0.2433,0.2477,0.2501,0.2536,0.2554,0.2535,0.2621,0.2599,0.2632,0.2632,0.2649,0.2648,0.2735,0.2666,0.2666,0.2665,0.2665,0,0.2135,0.2183,0.2213,0.2248,0.2301,0.2319,0.2371,0.2392,0.2425,0.2463,0.247,0.2506,0.2528,0.2567,0.2582,0.2637,0.2648,0.2658,0.2661,0.2657,0.2656,0.2672,0.2668,0.2668,0.2667,0.2667,0.2666,0,0.2188,0.221,0.2271,0.2314,0.2325,0.2363,0.2399,0.2432,0.2452,0.25,0.2513,0.2543,0.259,0.2612,0.2669,0.2679,0.2741,0.2742,0.2728,0.2729,0.2761,0.2758,0.2861,0.2876,0.2797,0.2798,0.2799,0,0.2229,0.2266,0.2312,0.2338,0.2361,0.2403,0.2431,0.2451,0.248,0.2526,0.2554,0.2601,0.264,0.2714,0.2741,0.2786,0.2787,0.282,0.2794,0.2788,0.2787,0.2784,0.2788,0.2825,0.2826,0.2826,0.2827,0,0.23,0.231,0.235,0.2395,0.2428,0.2464,0.2499,0.252,0.2545,0.2578,0.2626,0.2656,0.2715,0.2762,0.2808,0.2831,0.2833,0.2835,0.2845,0.2841,0.2831,0.2836,0.2741,0.2832,0.2832,0.2831,0.2831,0.2831,0.2348,0.2381,0.2419,0.2463,0.2492,0.2525,0.2559,0.2582,0.2623,0.2672,0.2682,0.2733,0.277,0.2833,0.2857,0.2898,0.289,0.2904,0.2908,0.2911,0.2912,0.2825,0.2906,0.2906,0.2906,0.2906,0.2906,0,0.2419,0.2444,0.2485,0.2534,0.2569,0.2569,0.2608,0.2638,0.2683,0.2718,0.2756,0.2811,0.2857,0.2888,0.2934,0.296,0.2962,0.2972,0.2969,0.2975,0.2917,0.2903,0.2969,0.2969,0.2969,0.2969,0.2969,0.2969,0.246,0.2515,0.2529,0.2599,0.2624,0.2674,0.2696,0.2727,0.2755,0.2816,0.2854,0.2874,0.2908,0.2957,0.2998,0.3006,0.3023,0.3032,0.304,0.2985,0.2979,0.2972,0.296,0.3036,0.3036,0.3094,0.3095,0.3095]},{"header":{"parameterUnit":"m.s-1","parameterCategory":1,"la1":30.2991,"la2":30.254,"lo1":-89.0895,"lo2":-89.0444,"dy":0.0017,"dx":0.0017,"nx":28,"ny":28,"refTime":"2025-05-20T03:00:00:Z","depth":0,"parameterNumber":3,"parameterNumberName":"V-component_of_WINDS"},"data":[0,0,0,0,0,0,0,0,0,0,0,0,0,0,0,0,0,0,0,0,0,0,0,0,0,0,0,0,0,0,0,0,0,0,0,0,0,0,0,0,0,0,0,0,0,0,0,0,0,0,0,0,0,0,0,0,0,0,0.0115,0.0114,0,0.0033,0.0032,0.0031,-0.0052,-0.0053,-0.0054,-0.0055,-0.0141,-0.0143,-0.0144,0,0,0,0,0,0,0,0,0,0,0,0,0,0.02,0.0198,0.0115,0.0114,0.0113,0.0033,0.0032,0.003,-0.0051,-0.0053,-0.0054,-0.0055,-0.0141,-0.0142,-0.0144,0,0,0,0,0,0,0,0,0,0,0,0,0,0.0145,0.0198,0.0115,0.0063,0.0057,0.0033,0.0032,0.003,-0.0051,-0.0053,-0.0054,-0.0056,-0.014,-0.0142,-0.0144,-0.0124,0,0,-0.015,-0.0151,0,0,0,0,0,0,0,0,0.0148,0.0142,0.0072,0.0066,0.006,-0.0001,0.0029,-0.0022,-0.0051,-0.001,-0.0055,-0.0057,-0.0093,-0.0099,-0.0111,-0.0128,-0.0132,-0.015,-0.0152,-0.0152,-0.0153,0,0,0,0,0,0,0,0.0152,0.0145,0.0082,0.0071,0.0064,0.0042,0.0033,0.0019,-0.0042,-0.0014,-0.002,-0.0028,-0.0097,-0.0109,-0.0114,-0.0133,-0.015,-0.0152,-0.0153,-0.0154,-0.0138,-0.0137,0,0,0,0,0,0,0.0164,0.0148,0.0085,0.008,0.0101,0.0042,0.0031,0.002,-0.0042,-0.0053,-0.0027,-0.0032,-0.0105,-0.0112,-0.0117,-0.0098,-0.0152,-0.0154,-0.0155,-0.014,-0.0138,-0.0136,0,0,0,0,0,0,0.0166,0.0159,0.0088,0.0112,0.0102,0.0042,0.0031,0.002,0.0007,-0.0052,-0.0063,-0.0028,-0.0107,-0.0115,-0.0122,-0.0102,-0.0155,-0.0157,-0.0142,-0.0139,-0.0137,-0.0059,0,0,0,0,0,0,0.0169,0.016,0.0168,0.0113,0.0101,0.0087,0.0032,0.0019,0.0004,-0.0003,-0.0056,-0.0066,-0.0109,-0.0118,-0.0124,-0.0106,-0.0158,-0.0144,-0.0141,-0.0138,-0.0064,-0.0054,-0.0047,0,0,0,0,0,0.0172,0.0193,0.0169,0.0162,0.011,0.0088,0.0081,0.0032,0.0006,0.0013,-0.0025,-0.0065,-0.0104,-0.0118,-0.0125,-0.0108,-0.0145,-0.0142,-0.0138,-0.0068,-0.0056,-0.0047,0,0,0,0,0,0,0.0252,0.0185,0.0158,0.0162,0.0131,0.0074,0.0082,0.0046,0.0022,0.0016,-0.0044,-0.0056,-0.0056,-0.0083,-0.0098,-0.0092,-0.013,-0.0128,-0.0074,-0.0064,-0.0055,-0.0049,-0.016,0,0,0,0,0,0.027,0.0259,0.0201,0.021,0.0196,0.0142,0.013,0.0096,0.0061,0.0048,0.0009,-0.0024,-0.0044,-0.0055,-0.0077,-0.0068,-0.0082,-0.006,-0.0051,-0.0044,-0.0041,-0.004,-0.0031,-0.0125,-0.0125,-0.0125,0,0,0.0308,0.027,0.0266,0.0225,0.0197,0.0186,0.0131,0.0122,0.0112,0.0046,0.0037,0.0007,-0.0033,-0.0033,-0.0034,-0.0055,-0.0018,-0.0039,-0.0033,-0.0034,-0.0035,-0.0026,-0.0018,-0.0122,-0.0123,-0.0123,0,0,0.037,0.034,0.0344,0.0317,0.0276,0.0239,0.0241,0.0188,0.0166,0.0156,0.0106,0.0093,0.0061,0.0033,0.0015,0.0066,0.0028,0.0061,0.0106,0.0108,0.0115,0.0121,0.0139,0.0146,0.0064,0.0064,0.0064,0,0.0421,0.0403,0.0351,0.0344,0.0327,0.0267,0.027,0.0246,0.0199,0.0188,0.0166,0.0123,0.0092,0.0084,0.0097,0.0084,0.0083,0.0067,0.0118,0.0124,0.0129,0.0145,0.0152,0.0068,0.0067,0.0067,0.0067,0,0.0468,0.0456,0.0464,0.0421,0.0404,0.0403,0.035,0.0339,0.0306,0.0271,0.0261,0.0221,0.019,0.0185,0.0152,0.0173,0.0161,0.013,0.009,0.0143,0.0157,0.0163,0.0074,0.0072,0.0071,0.007,0,0,0.0579,0.0506,0.051,0.0489,0.0439,0.0428,0.0422,0.0392,0.0384,0.0354,0.0348,0.0321,0.0291,0.027,0.0233,0.0235,0.0277,0.0202,0.0201,0.0217,0.0296,0.032,0.0328,0.0251,0.0252,0.0253,0.0299,0,0.0632,0.062,0.0572,0.0574,0.0562,0.0503,0.0498,0.0466,0.0434,0.0417,0.0381,0.0363,0.0325,0.0312,0.0311,0.0272,0.0292,0.0268,0.0244,0.0243,0.0256,0.0335,0.0361,0.0407,0.0304,0.0305,0.0306,0,0.0692,0.0666,0.0667,0.0616,0.0608,0.0605,0.0573,0.0559,0.0521,0.0496,0.0473,0.0432,0.0422,0.0385,0.037,0.0355,0.0342,0.0321,0.0322,0.0318,0.0278,0.0333,0.042,0.0427,0.0314,0.0313,0.0313,0,0.0773,0.0737,0.0733,0.0717,0.0657,0.0656,0.0631,0.0591,0.0576,0.0547,0.0536,0.0507,0.0491,0.0469,0.042,0.0398,0.041,0.0369,0.0389,0.039,0.0394,0.0395,0.0481,0.0387,0.0386,0.0386,0.0386,0,0.0837,0.084,0.0768,0.0766,0.0766,0.0711,0.0713,0.0682,0.0647,0.0636,0.0583,0.0574,0.0511,0.0494,0.0456,0.0448,0.0442,0.0421,0.0411,0.0426,0.0428,0.0416,0.0412,0.0388,0.0388,0.0387,0.0387,0,0.0927,0.0879,0.087,0.0814,0.08,0.0803,0.0754,0.0749,0.0713,0.07,0.0693,0.0636,0.0614,0.0563,0.0527,0.0501,0.0503,0.0485,0.0516,0.051,0.0532,0.0531,0.0613,0.0621,0.0523,0.0524,0.0525,0,0.0971,0.0972,0.0915,0.0905,0.0882,0.0866,0.0849,0.0795,0.078,0.0736,0.0735,0.0709,0.0685,0.0651,0.0606,0.0577,0.0558,0.0588,0.0553,0.0568,0.0557,0.0558,0.0557,0.0596,0.0598,0.0599,0.06,0,0.1054,0.103,0.101,0.0981,0.0963,0.0937,0.0909,0.0903,0.0841,0.0827,0.0803,0.0785,0.0747,0.0721,0.0686,0.0658,0.0619,0.0611,0.0614,0.0629,0.0648,0.0637,0.0538,0.061,0.0609,0.0608,0.0607,0.0607,0.1122,0.112,0.108,0.1058,0.1031,0.1005,0.0997,0.0959,0.0939,0.0905,0.0873,0.0853,0.0813,0.0761,0.0736,0.0719,0.0699,0.0703,0.0704,0.0706,0.0712,0.0651,0.0712,0.0711,0.0711,0.0711,0.0711,0,0.1202,0.1174,0.1154,0.1116,0.1098,0.1063,0.1029,0.1016,0.0999,0.0966,0.0943,0.0915,0.0889,0.0842,0.0811,0.0806,0.0787,0.08,0.08,0.0794,0.0732,0.0732,0.0816,0.0816,0.0816,0.0816,0.0816,0.0816,0.1242,0.1236,0.1207,0.1186,0.1156,0.1137,0.112,0.1095,0.1068,0.104,0.1019,0.0988,0.0948,0.0914,0.0888,0.0875,0.0866,0.0885,0.0865,0.0808,0.0799,0.0789,0.0789,0.0883,0.0883,0.0929,0.0929,0.0929]}]]